Le nostre stazioni meteo in Italia

Pubblicità
Il mio iltempo24.it
Drumnadrochit, Gran Bretagna (99132): Temperatura & dewpoint: 14.04.2018 19:00:00 - 20.04.2018 19:00:00 (BST)Drumnadrochit, Gran Bretagna (99132): precipitazioni: 14.04.2018 19:00:00 - 20.04.2018 19:00:00 (BST)
Data & Tempo tt [°C] td [°C] rr [mm]
20.04.2018 19:00:00 - - -
20.04.2018 18:00:00 12,2 5,2 0,0
20.04.2018 17:00:00 13,1 4,7 0,0
20.04.2018 16:00:00 12,0 7,1 0,2
20.04.2018 15:00:00 11,2 8,0 0,2
20.04.2018 14:00:00 13,5 5,4 0,0
20.04.2018 13:00:00 13,7 5,6 0,0
20.04.2018 12:00:00 13,8 6,3 0,0
20.04.2018 11:00:00 13,1 6,3 0,0
20.04.2018 10:00:00 11,9 5,9 0,0
20.04.2018 09:00:00 11,9 5,9 0,0
20.04.2018 08:00:00 9,9 7,4 0,0
20.04.2018 07:00:00 4,2 3,9 0,0
20.04.2018 06:00:00 3,3 3,1 0,0
20.04.2018 05:00:00 3,3 2,8 0,0
20.04.2018 04:00:00 4,9 3,9 0,0
20.04.2018 03:00:00 6,3 5,3 0,0
20.04.2018 02:00:00 5,2 4,0 0,0
20.04.2018 01:00:00 7,7 6,3 0,0
20.04.2018 00:00:00 7,2 5,8 0,0
19.04.2018 23:00:00 10,3 7,0 0,0
19.04.2018 22:00:00 10,3 8,3 0,0
19.04.2018 21:00:00 12,3 8,0 0,0
19.04.2018 20:00:00 14,0 8,2 0,0
19.04.2018 19:00:00 14,8 8,2 0,0
19.04.2018 18:00:00 15,0 8,1 0,0
19.04.2018 17:00:00 16,2 8,7 0,0
19.04.2018 16:00:00 16,0 8,5 0,0
19.04.2018 15:00:00 16,4 8,4 0,0
19.04.2018 14:00:00 15,6 9,8 0,0
19.04.2018 13:00:00 16,0 10,2 0,0
19.04.2018 12:00:00 13,7 10,0 0,0
19.04.2018 11:00:00 14,1 10,2 0,0
19.04.2018 10:00:00 13,3 9,8 0,0
19.04.2018 09:00:00 13,4 9,3 0,0
19.04.2018 08:00:00 - - 0,0
19.04.2018 07:00:00 - - -
19.04.2018 06:00:00 - - -
19.04.2018 05:00:00 - - -
19.04.2018 04:00:00 - - -
19.04.2018 03:00:00 - - -
19.04.2018 02:00:00 16,4 8,3 0,0
19.04.2018 01:00:00 16,8 8,7 0,0
19.04.2018 00:00:00 16,9 9,0 0,0
18.04.2018 23:00:00 16,0 9,1 0,0
18.04.2018 22:00:00 15,6 8,4 0,0
18.04.2018 21:00:00 16,2 8,4 0,0
18.04.2018 20:00:00 16,1 8,1 0,0
18.04.2018 19:00:00 16,0 8,6 0,0
18.04.2018 18:00:00 15,5 9,5 0,0
18.04.2018 17:00:00 15,7 8,5 0,0
18.04.2018 16:00:00 17,1 7,6 0,0
18.04.2018 15:00:00 16,6 8,3 0,0
18.04.2018 14:00:00 16,9 8,9 0,0
18.04.2018 13:00:00 16,6 9,8 0,0
18.04.2018 12:00:00 14,7 9,0 0,0
18.04.2018 11:00:00 13,9 8,3 0,0
18.04.2018 10:00:00 13,5 7,8 0,0
18.04.2018 09:00:00 12,8 8,0 0,0
18.04.2018 08:00:00 10,6 10,2 0,0
18.04.2018 07:00:00 7,6 7,6 0,0
18.04.2018 06:00:00 6,4 6,2 0,2
18.04.2018 05:00:00 7,3 7,1 0,0
18.04.2018 04:00:00 7,4 6,9 0,0
18.04.2018 03:00:00 8,7 8,3 0,4
18.04.2018 02:00:00 10,0 9,0 1,2
18.04.2018 01:00:00 9,8 8,8 1,4
18.04.2018 00:00:00 6,9 6,8 0,0
17.04.2018 23:00:00 7,5 7,4 0,0
17.04.2018 22:00:00 7,5 6,6 0,0
17.04.2018 21:00:00 8,9 8,2 0,0
17.04.2018 20:00:00 10,7 8,5 0,2
17.04.2018 19:00:00 11,2 9,4 4,2
17.04.2018 18:00:00 12,4 8,3 0,6
17.04.2018 17:00:00 14,7 7,0 0,0
17.04.2018 16:00:00 16,3 7,3 0,0
17.04.2018 15:00:00 15,2 6,9 0,0
17.04.2018 14:00:00 15,2 6,5 0,0
17.04.2018 13:00:00 14,4 6,7 0,0
17.04.2018 12:00:00 15,0 8,2 0,0
17.04.2018 11:00:00 12,7 9,8 1,0
17.04.2018 10:00:00 11,4 8,6 0,6
17.04.2018 09:00:00 11,6 7,1 0,2
17.04.2018 08:00:00 11,5 6,6 0,0
17.04.2018 07:00:00 11,5 5,4 0,0
17.04.2018 06:00:00 11,5 5,1 0,0
17.04.2018 05:00:00 11,3 4,9 0,0
17.04.2018 04:00:00 11,3 4,8 0,0
17.04.2018 03:00:00 10,9 4,5 0,0
17.04.2018 02:00:00 10,7 4,4 0,0
17.04.2018 01:00:00 10,4 4,1 0,0
17.04.2018 00:00:00 10,6 3,8 0,0
16.04.2018 23:00:00 11,0 3,5 0,0
16.04.2018 22:00:00 11,3 2,9 0,0
16.04.2018 21:00:00 11,5 2,9 0,0
16.04.2018 20:00:00 11,5 2,9 0,0
16.04.2018 19:00:00 11,6 2,4 0,0
16.04.2018 18:00:00 12,0 1,9 0,0
16.04.2018 17:00:00 13,0 4,0 0,0
16.04.2018 16:00:00 13,8 4,4 0,0
16.04.2018 15:00:00 13,5 5,7 0,0
16.04.2018 14:00:00 14,1 6,4 0,0
16.04.2018 13:00:00 13,9 6,4 0,0
16.04.2018 12:00:00 13,4 6,7 0,0
16.04.2018 11:00:00 12,5 6,4 0,0
16.04.2018 10:00:00 12,6 6,3 0,0
16.04.2018 09:00:00 11,6 5,8 0,0
16.04.2018 08:00:00 9,8 6,2 0,0
16.04.2018 07:00:00 7,8 4,8 0,0
16.04.2018 06:00:00 8,6 5,0 0,0
16.04.2018 05:00:00 7,7 5,2 0,0
16.04.2018 04:00:00 9,1 5,3 0,0
16.04.2018 03:00:00 9,3 5,0 0,0
16.04.2018 02:00:00 9,8 5,0 0,0
16.04.2018 01:00:00 10,2 4,8 0,0
16.04.2018 00:00:00 9,6 4,9 0,0
15.04.2018 23:00:00 10,3 4,7 0,0
15.04.2018 22:00:00 10,5 4,5 0,0
15.04.2018 21:00:00 11,3 4,8 0,0
15.04.2018 20:00:00 11,5 4,8 0,0
15.04.2018 19:00:00 12,7 4,9 0,0
15.04.2018 18:00:00 14,0 5,1 0,0
15.04.2018 17:00:00 15,6 4,9 0,0
15.04.2018 16:00:00 16,2 4,5 0,0
15.04.2018 15:00:00 13,4 6,6 0,0
15.04.2018 14:00:00 9,2 6,2 0,0
15.04.2018 13:00:00 9,1 6,4 0,0
15.04.2018 12:00:00 8,0 6,3 0,0
15.04.2018 11:00:00 6,1 5,7 0,0
15.04.2018 10:00:00 5,3 4,9 0,0
15.04.2018 09:00:00 5,4 4,6 0,0
15.04.2018 08:00:00 2,9 2,9 0,0
15.04.2018 07:00:00 1,1 1,1 0,0
15.04.2018 06:00:00 0,7 0,6 0,0
15.04.2018 05:00:00 0,9 0,7 0,0
15.04.2018 04:00:00 1,3 1,0 0,0
15.04.2018 03:00:00 1,8 1,4 0,0
15.04.2018 02:00:00 3,3 2,9 0,0
15.04.2018 01:00:00 3,3 2,7 0,0
15.04.2018 00:00:00 3,9 2,3 0,0
14.04.2018 23:00:00 5,6 3,4 0,0
14.04.2018 22:00:00 8,3 6,0 0,0
14.04.2018 21:00:00 9,3 6,3 0,0
14.04.2018 20:00:00 10,8 6,1 0,0
14.04.2018 19:00:00 12,8 4,2 0,0

tt = Temperatura
td = dewpoint
rr = precipitazioni

Stazioni seguenti

WeatherPro
AMSI
MeteoEarth